RYR12LU LIME-LICA

Flight info

Callsign RYR12LU
Flight time N/A
Altitude 35000
Route ILFUG1PXLOGDI1S/28 LOGDI DCT LOMED DCT TEA DCT POLIT DCT EVINO M620 ARBUM
Aircraft B738/M-SDE3FGILRWY/SB1

Departure

Time N/A
Airport Il Caravaggio International Airport (LIME)

Arrival

Time 2026-04-30 17:59
Airport Lamezia Terme Sant'Eufemia International Airport (LICA)
Time Latitude Longitude Altitude Speed Heading
2026-04-30 17:39 40.05009 14.94167 22628 ft 402 kts 142°
2026-04-30 17:41 39.88581 15.12724 19799 ft 380 kts 143°
2026-04-30 17:42 39.84604 15.17187 19133 ft 375 kts 142°
2026-04-30 17:42 39.78726 15.23777 18087 ft 369 kts 142°
2026-04-30 17:43 39.74860 15.28106 17369 ft 364 kts 142°
2026-04-30 17:44 39.69155 15.34469 16358 ft 357 kts 142°
2026-04-30 17:44 39.63556 15.40708 15362 ft 350 kts 142°
2026-04-30 17:46 39.54446 15.50860 13721 ft 341 kts 141°
2026-04-30 17:47 39.47326 15.58777 12364 ft 332 kts 141°
2026-04-30 17:48 39.40408 15.66449 11092 ft 323 kts 141°
2026-04-30 17:48 39.35337 15.72064 10156 ft 317 kts 141°
2026-04-30 17:49 39.28698 15.79393 8849 ft 309 kts 141°
2026-04-30 17:50 39.22210 15.86426 7624 ft 300 kts 141°
2026-04-30 17:51 39.16782 15.89889 6730 ft 291 kts 167°
2026-04-30 17:52 39.10942 15.91938 5724 ft 289 kts 166°
2026-04-30 17:53 39.01718 15.95437 4638 ft 260 kts 160°
2026-04-30 17:54 38.95099 15.98681 3563 ft 244 kts 157°
2026-04-30 17:55 38.92630 16.05581 2657 ft 210 kts 97°
2026-04-30 17:56 38.91876 16.12571 1588 ft 180 kts 97°
2026-04-30 17:57 38.91383 16.16855 966 ft 143 kts 97°
2026-04-30 17:58 38.90975 16.20670 415 ft 149 kts 97°
2026-04-30 17:59 38.90453 16.24977 35 ft 42 kts 98°
2026-04-30 18:00 38.90620 16.25360 33 ft 19 kts 295°
2026-04-30 18:00 38.90757 16.24877 29 ft 17 kts 291°
2026-04-30 18:01 38.90797 16.24582 31 ft 16 kts 278°
2026-04-30 18:02 38.90872 16.24441 31 ft 2 kts
2026-04-30 18:02 38.90878 16.24451 31 ft 0 kts 60°